TimeEDT,TemperatureF,Dew PointF,Humidity,Sea Level PressureIn,VisibilityMPH,Wind Direction,Wind SpeedMPH,Gust SpeedMPH,PrecipitationIn,Events,Conditions,WindDirDegrees,DateUTC
12:51 AM,52.0,41.0,66,30.03,10.0,SW,8.1,-,N/A,,Mostly Cloudy,230,2011-10-22 04:51:00
1:51 AM,50.0,41.0,71,30.03,10.0,SW,5.8,-,N/A,,Partly Cloudy,230,2011-10-22 05:51:00
2:51 AM,48.9,41.0,74,30.04,10.0,SW,4.6,-,N/A,,Clear,220,2011-10-22 06:51:00
3:51 AM,46.9,41.0,80,30.04,10.0,SW,5.8,-,N/A,,Clear,220,2011-10-22 07:51:00
4:51 AM,46.4,41.0,81,30.05,10.0,WSW,8.1,-,N/A,,Clear,250,2011-10-22 08:51:00
5:51 AM,46.0,41.0,83,30.05,10.0,WSW,3.5,-,N/A,,Clear,250,2011-10-22 09:51:00
6:51 AM,46.0,41.0,83,30.06,10.0,SW,3.5,-,N/A,,Partly Cloudy,220,2011-10-22 10:51:00
7:51 AM,48.2,41.0,76,30.07,10.0,West,3.5,-,N/A,,Partly Cloudy,260,2011-10-22 11:51:00
8:51 AM,48.9,42.1,77,30.09,10.0,SSW,5.8,-,N/A,,Partly Cloudy,210,2011-10-22 12:51:00
9:51 AM,53.1,43.0,69,30.09,10.0,Variable,3.5,-,N/A,,Partly Cloudy,0,2011-10-22 13:51:00
10:51 AM,57.9,42.1,56,30.08,10.0,Variable,6.9,-,N/A,,Scattered Clouds,0,2011-10-22 14:51:00
11:51 AM,59.0,39.9,49,30.08,10.0,WNW,10.4,19.6,N/A,,Scattered Clouds,290,2011-10-22 15:51:00
12:51 PM,61.0,41.0,48,30.06,10.0,WNW,11.5,25.3,N/A,,Scattered Clouds,290,2011-10-22 16:51:00
1:51 PM,61.0,39.9,46,30.05,10.0,West,17.3,24.2,N/A,,Mostly Cloudy,260,2011-10-22 17:51:00
2:51 PM,59.0,39.9,49,30.04,10.0,WSW,11.5,19.6,N/A,,Mostly Cloudy,250,2011-10-22 18:51:00
3:51 PM,60.1,39.0,46,30.04,10.0,West,13.8,20.7,N/A,,Mostly Cloudy,260,2011-10-22 19:51:00
4:51 PM,57.9,37.9,47,30.05,10.0,West,12.7,18.4,N/A,,Scattered Clouds,270,2011-10-22 20:51:00
5:51 PM,55.9,39.0,53,30.06,10.0,West,11.5,-,N/A,,Scattered Clouds,270,2011-10-22 21:51:00
6:51 PM,55.0,39.0,55,30.07,10.0,West,9.2,-,N/A,,Scattered Clouds,280,2011-10-22 22:51:00
7:51 PM,53.1,39.0,59,30.09,10.0,West,5.8,-,N/A,,Partly Cloudy,270,2011-10-22 23:51:00
8:51 PM,52.0,39.0,61,30.10,10.0,West,4.6,-,N/A,,Partly Cloudy,270,2011-10-23 00:51:00
9:51 PM,51.1,39.0,63,30.11,10.0,West,6.9,-,N/A,,Scattered Clouds,280,2011-10-23 01:51:00
10:51 PM,51.1,39.9,66,30.11,10.0,WNW,5.8,-,N/A,,Mostly Cloudy,290,2011-10-23 02:51:00
11:51 PM,52.0,41.0,66,30.11,10.0,WNW,4.6,-,N/A,,Overcast,300,2011-10-23 03:51:00